Webb City, MO

4:05 AM CDT on September 29, 2016 (GMT -0500)
Joplin Regional

Weather History for KJLN - September, 2013

Change the Weather History Date:

Sunday, September 22, 2013

  Actual Average Record
Temperature  
Mean Temperature 63 °F 68 °F  
Max Temperature 77 °F 80 °F 95 °F (1956)
Min Temperature 49 °F 57 °F 33 °F (1995)
Degree Days  
Heating Degree Days 2 2  
Month to date heating degree days 9 15  
Since 1 July heating degree days 9 16  
Cooling Degree Days 0 5  
Month to date cooling degree days 224 181  
Year to date cooling degree days 1488 1608  
Growing Degree Days 12 (Base 50)    
Moisture  
Dew Point 48 °F    
Average Humidity 65    
Maximum Humidity 96    
Minimum Humidity 33    
Precipitation  
Precipitation 0.00 in 0.17 in 4.15 in (1962)
Month to date precipitation T 3.67  
Year to date precipitation 35.46 34.64  
Sea Level Pressure  
Sea Level Pressure 29.93 in    
Wind  
Wind Speed 5 mph (SE)    
Max Wind Speed 13 mph    
Max Gust Speed 18 mph    
Visibility 10 miles    
Events      
T = Trace of Precipitation, MM = Missing Value Source: NWS Daily Summary

Daily Weather History Graph

Daily Weather History Graph

Search for Another Location

Airport or City:

Trip Planner

Search our weather history database for the weather conditions in past years. The results will help you decide how hot, cold, wet, or windy it might be!

Date:

Astronomy

Sep. 22, 2013 Rise Set
Actual Time 7:06 AM CDT 7:14 PM CDT
Civil Twilight 6:40 AM CDT 7:40 PM CDT
Nautical Twilight 6:09 AM CDT 8:10 PM CDT
Astronomical Twilight 5:38 AM CDT 8:41 PM CDT
Moon 9:10 PM CDT (9/22) 10:21 AM CDT (9/22)
Length of Visible Light 13h 00m
Length of Day
12h 08m
Waning Gibbous, 88% of the Moon is Illuminated
Sep 22
Waning Gibbous
Sep 26
Last Quarter
Oct 4
New
Oct 11
First Quarter
Oct 18
Full

Hourly Weather History & Observations

Time (CDT) Temp. Dew Point Humidity Pressure Visibility Wind Dir Wind Speed Gust Speed Precip Events Conditions
12:53 AM 53.1 °F 50.0 °F 89% 29.95 in 10.0 mi Calm Calm - N/A   Clear
1:53 AM 52.0 °F 50.0 °F 93% 29.95 in 10.0 mi Calm Calm - N/A   Clear
2:53 AM 52.0 °F 48.9 °F 89% 29.95 in 10.0 mi Calm Calm - N/A   Clear
3:53 AM 51.1 °F 48.0 °F 89% 29.95 in 10.0 mi Calm Calm - N/A   Clear
4:53 AM 52.0 °F 46.9 °F 83% 29.94 in 10.0 mi Calm Calm - N/A   Clear
5:53 AM 50.0 °F 46.0 °F 86% 29.96 in 10.0 mi Calm Calm - N/A   Clear
6:53 AM 50.0 °F 44.1 °F 80% 29.96 in 10.0 mi ESE 5.8 mph - N/A   Clear
7:53 AM 53.1 °F 46.9 °F 80% 29.99 in 10.0 mi SE 3.5 mph - N/A   Clear
8:53 AM 59.0 °F 48.0 °F 67% 30.00 in 10.0 mi SSE 6.9 mph - N/A   Clear
9:53 AM 64.0 °F 48.0 °F 56% 30.00 in 10.0 mi SE 8.1 mph - N/A   Clear
10:53 AM 66.9 °F 46.9 °F 49% 30.00 in 10.0 mi SE 6.9 mph - N/A   Clear
11:53 AM 70.0 °F 48.0 °F 46% 29.99 in 10.0 mi SE 8.1 mph - N/A   Clear
12:53 PM 72.0 °F 48.9 °F 44% 29.96 in 10.0 mi Variable 6.9 mph - N/A   Clear
1:53 PM 73.9 °F 48.0 °F 40% 29.94 in 10.0 mi SE 8.1 mph - N/A   Clear
2:53 PM 75.0 °F 46.9 °F 37% 29.92 in 10.0 mi SE 5.8 mph - N/A   Clear
3:53 PM 75.9 °F 45.0 °F 33% 29.89 in 10.0 mi Variable 4.6 mph - N/A   Clear
4:53 PM 75.9 °F 46.0 °F 35% 29.88 in 10.0 mi SSE 8.1 mph - N/A   Clear
5:53 PM 75.0 °F 45.0 °F 34% 29.87 in 10.0 mi SE 8.1 mph - N/A   Clear
6:53 PM 71.1 °F 48.0 °F 44% 29.88 in 10.0 mi SE 5.8 mph - N/A   Clear
7:53 PM 64.9 °F 50.0 °F 58% 29.88 in 10.0 mi ESE 4.6 mph - N/A   Clear
8:53 PM 62.1 °F 51.1 °F 67% 29.88 in 10.0 mi ESE 5.8 mph - N/A   Clear
9:53 PM 62.1 °F 52.0 °F 70% 29.88 in 10.0 mi ESE 6.9 mph - N/A   Clear
10:53 PM 61.0 °F 51.1 °F 70% 29.89 in 10.0 mi ESE 8.1 mph - N/A   Clear
11:53 PM 60.1 °F 51.1 °F 72% 29.89 in 10.0 mi SE 6.9 mph - N/A   Clear